| time (UTC) | temp C | wind direction | speed KPH | gust KPH | rain 1hr cm | rain 24hr cm | rain mn cm | humidity % | barometer mb |
| 20260505215003 | 26 | 196 | 12.9 | 17.7 | 0.00 | 0.00 | 0.00 | 32 | 1009.4 |
| 20260505214504 | 27 | 213 | 14.5 | 20.9 | 0.00 | 0.00 | 0.00 | 32 | 1009.3 |
| 20260505214003 | 27 | 205 | 12.9 | 20.9 | 0.00 | 0.00 | 0.00 | 31 | 1009.3 |
| 20260505213503 | 27 | 187 | 11.3 | 19.3 | 0.00 | 0.00 | 0.00 | 32 | 1009.4 |
| 20260505213003 | 27 | 205 | 12.9 | 27.4 | 0.00 | 0.00 | 0.00 | 32 | 1009.4 |
| 20260505212504 | 27 | 214 | 16.1 | 27.4 | 0.00 | 0.00 | 0.00 | 31 | 1009.4 |
| 20260505212004 | 27 | 208 | 16.1 | 24.1 | 0.00 | 0.00 | 0.00 | 31 | 1009.5 |
| 20260505211003 | 27 | 199 | 12.9 | 27.4 | 0.00 | 0.00 | 0.00 | 30 | 1009.5 |
| 20260505210504 | 27 | 187 | 11.3 | 27.4 | 0.00 | 0.00 | 0.00 | 29 | 1009.4 |
| 20260505210004 | 27 | 187 | 12.9 | 25.7 | 0.00 | 0.00 | 0.00 | 29 | 1009.4 |
| 20260505205503 | 27 | 177 | 14.5 | 25.7 | 0.00 | 0.00 | 0.00 | 28 | 1009.3 |
| 20260505205003 | 27 | 179 | 16.1 | 27.4 | 0.00 | 0.00 | 0.00 | 28 | 1009.3 |
| 20260505204504 | 27 | 196 | 16.1 | 27.4 | 0.00 | 0.00 | 0.00 | 27 | 1009.4 |
| 20260505203504 | 27 | 192 | 14.5 | 29.0 | 0.00 | 0.00 | 0.00 | 27 | 1009.3 |
| 20260505203004 | 27 | 183 | 16.1 | 29.0 | 0.00 | 0.00 | 0.00 | 28 | 1009.2 |
| 20260505202504 | 27 | 187 | 16.1 | 29.0 | 0.00 | 0.00 | 0.00 | 28 | 1009.4 |
| 20260505201503 | 27 | 200 | 20.9 | 25.7 | 0.00 | 0.00 | 0.00 | 27 | 1009.3 |
| 20260505201004 | 27 | 196 | 16.1 | 27.4 | 0.00 | 0.00 | 0.00 | 27 | 1009.4 |
| 20260505200503 | 27 | 201 | 11.3 | 27.4 | 0.00 | 0.00 | 0.00 | 29 | 1009.5 |
| 20260505200003 | 27 | 191 | 16.1 | 35.4 | 0.00 | 0.00 | 0.00 | 30 | 1009.4 |
| 20260505195503 | 27 | 188 | 19.3 | 35.4 | 0.00 | 0.00 | 0.00 | 29 | 1009.4 |
| 20260505195004 | 27 | 190 | 17.7 | 33.8 | 0.00 | 0.00 | 0.00 | 29 | 1009.4 |
| 20260505194504 | 27 | 199 | 16.1 | 29.0 | 0.00 | 0.00 | 0.00 | 30 | 1009.5 |
| 20260505194003 | 27 | 189 | 16.1 | 29.0 | 0.00 | 0.00 | 0.00 | 30 | 1009.5 |
| 20260505193504 | 27 | 178 | 12.9 | 29.0 | 0.00 | 0.00 | 0.00 | 31 | 1009.6 |
| 20260505193003 | 27 | 184 | 9.7 | 12.9 | 0.00 | 0.00 | 0.00 | 31 | 1009.7 |
| 20260505192503 | 27 | 193 | 9.7 | 12.9 | 0.00 | 0.00 | 0.00 | 33 | 1009.6 |
| 20260505191003 | 27 | 205 | 19.3 | 27.4 | 0.00 | 0.00 | 0.00 | 34 | 1009.9 |
| 20260505190503 | 27 | 214 | 16.1 | 27.4 | 0.00 | 0.00 | 0.00 | 33 | 1009.9 |
| 20260505190004 | 27 | 209 | 12.9 | 22.5 | 0.00 | 0.00 | 0.00 | 35 | 1010.0 |
| 20260505185503 | 27 | 204 | 11.3 | 29.0 | 0.00 | 0.00 | 0.00 | 36 | 1010.1 |
| 20260505185004 | 27 | 200 | 14.5 | 29.0 | 0.00 | 0.00 | 0.00 | 35 | 1010.0 |
| 20260505184505 | 27 | 201 | 12.9 | 29.0 | 0.00 | 0.00 | 0.00 | 35 | 1010.3 |
| 20260505184003 | 27 | 194 | 11.3 | 9.7 | 0.00 | 0.00 | 0.00 | 36 | 1010.3 |
| 20260505183503 | 27 | 192 | 12.9 | 22.5 | 0.00 | 0.00 | 0.00 | 36 | 1010.4 |
| 20260505183003 | 27 | 191 | 14.5 | 22.5 | 0.00 | 0.00 | 0.00 | 35 | 1010.5 |
| 20260505182503 | 27 | 201 | 12.9 | 22.5 | 0.00 | 0.00 | 0.00 | 35 | 1010.5 |
| 20260505182003 | 26 | 205 | 11.3 | 17.7 | 0.00 | 0.00 | 0.00 | 37 | 1010.6 |
| 20260505181504 | 26 | 208 | 11.3 | 17.7 | 0.00 | 0.00 | 0.00 | 37 | 1010.7 |
| 20260505181003 | 26 | 211 | 11.3 | 20.9 | 0.00 | 0.00 | 0.00 | 39 | 1010.7 |
| 20260505180503 | 26 | 211 | 9.7 | 20.9 | 0.00 | 0.00 | 0.00 | 39 | 1010.8 |
| 20260505180004 | 26 | 175 | 9.7 | 14.5 | 0.00 | 0.00 | 0.00 | 38 | 1010.9 |
| 20260505175503 | 26 | 183 | 9.7 | 14.5 | 0.00 | 0.00 | 0.00 | 39 | 1010.9 |
| 20260505175003 | 26 | 190 | 8.0 | 14.5 | 0.00 | 0.00 | 0.00 | 39 | 1011.0 |
| 20260505174503 | 26 | 197 | 6.4 | 12.9 | 0.00 | 0.00 | 0.00 | 41 | 1010.9 |
| 20260505174004 | 26 | 189 | 6.4 | 12.9 | 0.00 | 0.00 | 0.00 | 41 | 1011.1 |
| 20260505173003 | 26 | 213 | 11.3 | 16.1 | 0.00 | 0.00 | 0.00 | 41 | 1011.1 |
| 20260505172503 | 26 | 207 | 12.9 | 16.1 | 0.00 | 0.00 | 0.00 | 39 | 1011.1 |
| 20260505172005 | 26 | 197 | 9.7 | 14.5 | 0.00 | 0.00 | 0.00 | 40 | 1011.2 |
| 20260505171503 | 26 | 193 | 8.0 | 11.3 | 0.00 | 0.00 | 0.00 | 40 | 1011.2 |
| 20260505171003 | 26 | 197 | 6.4 | 11.3 | 0.00 | 0.00 | 0.00 | 40 | 1011.2 |
| 20260505170503 | 26 | 178 | 4.8 | 14.5 | 0.00 | 0.00 | 0.00 | 41 | 1011.2 |
| 20260505170003 | 25 | 192 | 8.0 | 17.7 | 0.00 | 0.00 | 0.00 | 41 | 1011.2 |
| 20260505165504 | 26 | 202 | 9.7 | 17.7 | 0.00 | 0.00 | 0.00 | 41 | 1011.2 |
| 20260505165004 | 26 | 187 | 6.4 | 11.3 | 0.00 | 0.00 | 0.00 | 42 | 1011.3 |
| 20260505164503 | 25 | 205 | 6.4 | 14.5 | 0.00 | 0.00 | 0.00 | 42 | 1011.3 |
| 20260505164005 | 25 | 209 | 8.0 | 14.5 | 0.00 | 0.00 | 0.00 | 43 | 1011.3 |
| 20260505163504 | 25 | 201 | 6.4 | 11.3 | 0.00 | 0.00 | 0.00 | 42 | 1011.3 |
| 20260505162004 | 25 | 190 | 6.4 | 9.7 | 0.00 | 0.00 | 0.00 | 44 | 1011.5 |
| 20260505161503 | 24 | 181 | 6.4 | 9.7 | 0.00 | 0.00 | 0.00 | 46 | 1011.5 |
| 20260505161003 | 24 | 152 | 4.8 | 4.8 | 0.00 | 0.00 | 0.00 | 45 | 1011.5 |
| 20260505160504 | 24 | 158 | 4.8 | 8.0 | 0.00 | 0.00 | 0.00 | 45 | 1011.6 |
| 20260505153003 | 23 | 190 | 6.4 | 8.0 | 0.00 | 0.00 | 0.00 | 46 | 1011.9 |
| 20260505152003 | 23 | 155 | 4.8 | 11.3 | 0.00 | 0.00 | 0.00 | 45 | 1012.0 |
| 20260505151003 | 23 | 144 | 3.2 | 3.2 | 0.00 | 0.00 | 0.00 | 46 | 1011.9 |
| 20260505125003 | 18 | 1 | 8.0 | 22.5 | 0.00 | 0.00 | 0.00 | 58 | 1012.4 |
| 20260505124503 | 18 | 2 | 6.4 | 22.5 | 0.00 | 0.00 | 0.00 | 58 | 1012.4 |
| 20260505124004 | 18 | 1 | 6.4 | 9.7 | 0.00 | 0.00 | 0.00 | 59 | 1012.4 |
| 20260505123503 | 18 | 1 | 8.0 | 9.7 | 0.00 | 0.00 | 0.00 | 60 | 1012.3 |
| 20260505123004 | 17 | 1 | 8.0 | 9.7 | 0.00 | 0.00 | 0.00 | 60 | 1012.3 |
| 20260505122504 | 17 | 2 | 8.0 | 17.7 | 0.00 | 0.00 | 0.00 | 60 | 1012.2 |
| 20260505122004 | 17 | 1 | 8.0 | 17.7 | 0.00 | 0.00 | 0.00 | 61 | 1012.2 |
| 20260505121503 | 17 | 2 | 6.4 | 11.3 | 0.00 | 0.00 | 0.00 | 62 | 1012.1 |
| 20260505121003 | 17 | 2 | 8.0 | 11.3 | 0.00 | 0.00 | 0.00 | 62 | 1012.2 |
| 20260505120503 | 17 | 2 | 8.0 | 11.3 | 0.00 | 0.00 | 0.00 | 62 | 1012.3 |
| 20260505120004 | 17 | 1 | 6.4 | 9.7 | 0.00 | 0.00 | 0.00 | 62 | 1012.3 |
| 20260505115504 | 17 | 1 | 6.4 | 11.3 | 0.00 | 0.00 | 0.00 | 63 | 1012.2 |
| 20260505115003 | 17 | 2 | 6.4 | 11.3 | 0.00 | 0.00 | 0.00 | 64 | 1012.2 |
| 20260505114504 | 16 | 1 | 6.4 | 11.3 | 0.00 | 0.00 | 0.00 | 65 | 1012.2 |
| 20260505114004 | 16 | 1 | 6.4 | 6.4 | 0.00 | 0.00 | 0.00 | 66 | 1012.2 |
| 20260505113503 | 16 | 1 | 6.4 | 17.7 | 0.00 | 0.00 | 0.00 | 66 | 1012.2 |
| 20260505113004 | 16 | 1 | 6.4 | 17.7 | 0.00 | 0.00 | 0.00 | 67 | 1012.1 |
| 20260505112505 | 16 | 1 | 6.4 | 14.5 | 0.00 | 0.00 | 0.00 | 67 | 1012.0 |
| 20260505112003 | 16 | 2 | 8.0 | 14.5 | 0.00 | 0.00 | 0.00 | 67 | 1011.9 |
| 20260505111504 | 16 | 1 | 6.4 | 8.0 | 0.00 | 0.00 | 0.00 | 68 | 1011.9 |
| 20260505111004 | 15 | 2 | 6.4 | 11.3 | 0.00 | 0.00 | 0.00 | 69 | 1011.9 |
| 20260505102003 | 16 | 2 | 6.4 | 11.3 | 0.00 | 0.00 | 0.00 | 68 | 1011.7 |
| 20260505101504 | 16 | 1 | 6.4 | 11.3 | 0.00 | 0.00 | 0.00 | 68 | 1011.6 |
| 20260505101003 | 16 | 2 | 6.4 | 9.7 | 0.00 | 0.00 | 0.00 | 68 | 1011.5 |
| 20260505100503 | 16 | 1 | 6.4 | 9.7 | 0.00 | 0.00 | 0.00 | 67 | 1011.5 |
| 20260505100003 | 16 | 1 | 6.4 | 9.7 | 0.00 | 0.00 | 0.00 | 67 | 1011.4 |
| 20260505095504 | 16 | 1 | 6.4 | 8.0 | 0.00 | 0.00 | 0.00 | 67 | 1011.4 |
| 20260505095003 | 16 | 1 | 6.4 | 8.0 | 0.00 | 0.00 | 0.00 | 67 | 1011.3 |
| 20260505094503 | 16 | 1 | 4.8 | 6.4 | 0.00 | 0.00 | 0.00 | 68 | 1011.2 |
| 20260505094004 | 16 | 1 | 4.8 | 6.4 | 0.00 | 0.00 | 0.00 | 68 | 1011.2 |
| 20260505093503 | 15 | 2 | 4.8 | 8.0 | 0.00 | 0.00 | 0.00 | 68 | 1011.2 |
| 20260505093003 | 15 | 1 | 6.4 | 8.0 | 0.00 | 0.00 | 0.00 | 68 | 1011.2 |
| 20260505092503 | 15 | 1 | 4.8 | 8.0 | 0.00 | 0.00 | 0.00 | 69 | 1011.2 |
| 20260505091503 | 15 | 1 | 6.4 | 12.9 | 0.00 | 0.00 | 0.00 | 70 | 1011.3 |
| 20260505091003 | 15 | 2 | 4.8 | 8.0 | 0.00 | 0.00 | 0.00 | 70 | 1011.3 |
| 20260505090503 | 15 | 2 | 4.8 | 8.0 | 0.00 | 0.00 | 0.00 | 70 | 1011.1 |
| 20260505090004 | 15 | 2 | 4.8 | 8.0 | 0.00 | 0.00 | 0.00 | 70 | 1011.1 |
| 20260505085503 | 15 | 1 | 4.8 | 4.8 | 0.00 | 0.00 | 0.00 | 70 | 1011.2 |
| 20260505084504 | 15 | 1 | 1.6 | 4.8 | 0.00 | 0.00 | 0.00 | 69 | 1011.3 |
| 20260505084003 | 15 | 1 | 0.0 | 1.6 | 0.00 | 0.00 | 0.00 | 69 | 1011.3 |
| 20260505083503 | 15 | 1 | 1.6 | 3.2 | 0.00 | 0.00 | 0.00 | 68 | 1011.2 |
| 20260505083003 | 15 | 1 | 1.6 | 4.8 | 0.00 | 0.00 | 0.00 | 68 | 1011.3 |
| 20260505082503 | 15 | 1 | 3.2 | 6.4 | 0.00 | 0.00 | 0.00 | 68 | 1011.3 |
| 20260505081504 | 15 | 1 | 3.2 | 6.4 | 0.00 | 0.00 | 0.00 | 68 | 1011.2 |
| 20260505080504 | 15 | 1 | 6.4 | 14.5 | 0.00 | 0.00 | 0.00 | 68 | 1011.3 |
| 20260505080004 | 15 | 1 | 4.8 | 6.4 | 0.00 | 0.00 | 0.00 | 68 | 1011.3 |
| 20260505075503 | 15 | 1 | 4.8 | 6.4 | 0.00 | 0.00 | 0.00 | 68 | 1011.3 |
| 20260505075004 | 15 | 1 | 4.8 | 6.4 | 0.00 | 0.00 | 0.00 | 67 | 1011.4 |
| 20260505074504 | 15 | 2 | 6.4 | 9.7 | 0.00 | 0.00 | 0.00 | 67 | 1011.3 |
| 20260505074003 | 15 | 1 | 6.4 | 9.7 | 0.00 | 0.00 | 0.00 | 67 | 1011.3 |
| 20260505073503 | 15 | 2 | 4.8 | 6.4 | 0.00 | 0.00 | 0.00 | 67 | 1011.4 |
| 20260505073003 | 15 | 1 | 4.8 | 9.7 | 0.00 | 0.00 | 0.00 | 67 | 1011.3 |
| 20260505072504 | 15 | 2 | 4.8 | 9.7 | 0.00 | 0.00 | 0.00 | 66 | 1011.2 |
| 20260505071503 | 15 | 1 | 4.8 | 6.4 | 0.00 | 0.00 | 0.00 | 66 | 1011.2 |
| 20260505071003 | 16 | 2 | 6.4 | 6.4 | 0.00 | 0.00 | 0.00 | 66 | 1011.2 |
| 20260505070503 | 16 | 1 | 6.4 | 12.9 | 0.00 | 0.00 | 0.00 | 65 | 1011.2 |
| 20260505070003 | 16 | 2 | 6.4 | 12.9 | 0.00 | 0.00 | 0.00 | 65 | 1011.2 |
| 20260505065503 | 16 | 1 | 6.4 | 9.7 | 0.00 | 0.00 | 0.00 | 65 | 1011.2 |
| 20260505065003 | 16 | 2 | 6.4 | 12.9 | 0.00 | 0.00 | 0.00 | 65 | 1011.1 |
| 20260505063503 | 16 | 1 | 6.4 | 14.5 | 0.00 | 0.00 | 0.00 | 65 | 1011.0 |
| 20260505063003 | 16 | 2 | 6.4 | 9.7 | 0.00 | 0.00 | 0.00 | 65 | 1011.1 |
| 20260505062504 | 16 | 1 | 6.4 | 16.1 | 0.00 | 0.00 | 0.00 | 64 | 1011.1 |
| 20260505062003 | 16 | 1 | 6.4 | 16.1 | 0.00 | 0.00 | 0.00 | 64 | 1011.1 |
| 20260505061003 | 16 | 1 | 3.2 | 6.4 | 0.00 | 0.00 | 0.00 | 64 | 1011.1 |
| 20260505060504 | 16 | 1 | 4.8 | 9.7 | 0.00 | 0.00 | 0.00 | 63 | 1011.2 |
| 20260505060004 | 16 | 2 | 4.8 | 9.7 | 0.00 | 0.00 | 0.00 | 63 | 1011.2 |
| 20260505055503 | 16 | 1 | 4.8 | 9.7 | 0.00 | 0.00 | 0.00 | 63 | 1011.1 |
| 20260505055004 | 16 | 1 | 4.8 | 12.9 | 0.00 | 0.00 | 0.00 | 62 | 1011.1 |
| 20260505054504 | 16 | 1 | 4.8 | 12.9 | 0.00 | 0.00 | 0.00 | 62 | 1011.2 |
| 20260505054003 | 16 | 1 | 4.8 | 8.0 | 0.00 | 0.00 | 0.00 | 62 | 1011.2 |
| 20260505053004 | 16 | 1 | 4.8 | 6.4 | 0.00 | 0.00 | 0.00 | 61 | 1011.3 |
| 20260505052504 | 16 | 1 | 3.2 | 6.4 | 0.00 | 0.00 | 0.00 | 61 | 1011.3 |
| 20260505052003 | 16 | 1 | 3.2 | 4.8 | 0.00 | 0.00 | 0.00 | 61 | 1011.3 |
| 20260505051503 | 16 | 1 | 3.2 | 4.8 | 0.00 | 0.00 | 0.00 | 61 | 1011.3 |
| 20260505051005 | 16 | 1 | 3.2 | 4.8 | 0.00 | 0.00 | 0.00 | 61 | 1011.4 |
| 20260505041004 | 16 | 1 | 3.2 | 3.2 | 0.00 | 0.00 | 0.00 | 59 | 1011.2 |
| 20260505040503 | 16 | 2 | 1.6 | 3.2 | 0.00 | 0.00 | 0.00 | 59 | 1011.2 |
| 20260505040005 | 16 | 1 | 1.6 | 1.6 | 0.00 | 0.00 | 0.00 | 58 | 1011.2 |
| 20260505035503 | 16 | 1 | 3.2 | 6.4 | 0.00 | 0.00 | 0.00 | 57 | 1011.2 |
| 20260505035003 | 16 | 1 | 3.2 | 6.4 | 0.00 | 0.00 | 0.00 | 56 | 1011.2 |
| 20260505034503 | 16 | 1 | 3.2 | 3.2 | 0.00 | 0.00 | 0.00 | 55 | 1011.3 |
| 20260505034004 | 16 | 1 | 3.2 | 4.8 | 0.00 | 0.00 | 0.00 | 55 | 1011.2 |
| 20260505033503 | 17 | 1 | 3.2 | 4.8 | 0.00 | 0.00 | 0.00 | 53 | 1011.3 |
| 20260505032504 | 17 | 1 | 3.2 | 3.2 | 0.00 | 0.00 | 0.00 | 51 | 1011.3 |
| 20260505032003 | 17 | 1 | 3.2 | 3.2 | 0.00 | 0.00 | 0.00 | 50 | 1011.3 |
| 20260505031003 | 17 | 2 | 3.2 | 3.2 | 0.00 | 0.00 | 0.00 | 49 | 1011.3 |
| 20260505030504 | 17 | 1 | 3.2 | 3.2 | 0.00 | 0.00 | 0.00 | 48 | 1011.4 |
| 20260505030004 | 17 | 1 | 3.2 | 3.2 | 0.00 | 0.00 | 0.00 | 48 | 1011.3 |
| 20260505025504 | 17 | 1 | 3.2 | 3.2 | 0.00 | 0.00 | 0.00 | 47 | 1011.4 |
| 20260505025004 | 17 | 1 | 3.2 | 4.8 | 0.00 | 0.00 | 0.00 | 47 | 1011.4 |
| 20260505024504 | 17 | 1 | 3.2 | 4.8 | 0.00 | 0.00 | 0.00 | 47 | 1011.6 |
| 20260505023504 | 17 | 1 | 3.2 | 6.4 | 0.00 | 0.00 | 0.00 | 46 | 1011.6 |
| 20260505023003 | 17 | 1 | 1.6 | 3.2 | 0.00 | 0.00 | 0.00 | 46 | 1011.6 |
| 20260505022503 | 18 | 1 | 1.6 | 3.2 | 0.00 | 0.00 | 0.00 | 46 | 1011.7 |
| 20260505022003 | 18 | 1 | 1.6 | 3.2 | 0.00 | 0.00 | 0.00 | 45 | 1011.6 |
| 20260505021504 | 18 | 1 | 1.6 | 3.2 | 0.00 | 0.00 | 0.00 | 45 | 1011.6 |
| 20260505021004 | 18 | 1 | 1.6 | 1.6 | 0.00 | 0.00 | 0.00 | 45 | 1011.6 |
| 20260505020503 | 18 | 1 | 1.6 | 3.2 | 0.00 | 0.00 | 0.00 | 45 | 1011.5 |
| 20260505020003 | 18 | 1 | 1.6 | 3.2 | 0.00 | 0.00 | 0.00 | 45 | 1011.5 |
| 20260505015504 | 18 | 1 | 1.6 | 3.2 | 0.00 | 0.00 | 0.00 | 45 | 1011.5 |
| 20260505015003 | 18 | 1 | 1.6 | 3.2 | 0.00 | 0.00 | 0.00 | 45 | 1011.6 |
| 20260505014503 | 18 | 1 | 1.6 | 4.8 | 0.00 | 0.00 | 0.00 | 45 | 1011.5 |
| 20260505014003 | 18 | 1 | 3.2 | 9.7 | 0.00 | 0.00 | 0.00 | 44 | 1011.6 |
| 20260505013504 | 18 | 1 | 3.2 | 9.7 | 0.00 | 0.00 | 0.00 | 44 | 1011.6 |
| 20260505013003 | 18 | 1 | 3.2 | 3.2 | 0.00 | 0.00 | 0.00 | 44 | 1011.6 |
| 20260505012503 | 18 | 1 | 3.2 | 3.2 | 0.00 | 0.00 | 0.00 | 44 | 1011.5 |
| 20260505011504 | 18 | 1 | 1.6 | 1.6 | 0.00 | 0.00 | 0.00 | 43 | 1011.3 |
| 20260505011004 | 18 | 1 | 1.6 | 1.6 | 0.00 | 0.00 | 0.00 | 43 | 1011.3 |
| 20260505010004 | 19 | 1 | 1.6 | 1.6 | 0.00 | 0.00 | 0.00 | 42 | 1011.2 |
| 20260505005503 | 19 | 1 | 1.6 | 1.6 | 0.00 | 0.00 | 0.00 | 41 | 1011.1 |
| 20260505005004 | 19 | 1 | 1.6 | 4.8 | 0.00 | 0.00 | 0.00 | 41 | 1011.0 |
| 20260505004504 | 19 | 1 | 1.6 | 4.8 | 0.00 | 0.00 | 0.00 | 41 | 1010.9 |
| 20260505004003 | 19 | 1 | 1.6 | 3.2 | 0.00 | 0.00 | 0.00 | 40 | 1010.9 |
| 20260505003503 | 20 | 1 | 1.6 | 3.2 | 0.00 | 0.00 | 0.00 | 39 | 1010.9 |
| 20260505002504 | 20 | 1 | 3.2 | 4.8 | 0.00 | 0.00 | 0.00 | 39 | 1010.8 |
| 20260505002004 | 20 | 1 | 4.8 | 9.7 | 0.00 | 0.00 | 0.00 | 39 | 1010.7 |
| 20260505001503 | 20 | 2 | 4.8 | 9.7 | 0.00 | 0.00 | 0.00 | 39 | 1010.7 |
| 20260505000504 | 20 | 2 | 4.8 | 9.7 | 0.00 | 0.00 | 0.00 | 38 | 1010.8 |
| 20260505000004 | 20 | 2 | 4.8 | 9.7 | 0.00 | 0.00 | 0.00 | 38 | 1010.8 |
| 20260504235503 | 20 | 2 | 3.2 | 9.7 | 0.00 | 0.00 | 0.00 | 37 | 1010.7 |
| 20260504234505 | 20 | 1 | 4.8 | 8.0 | 0.00 | 0.00 | 0.00 | 37 | 1010.6 |
| 20260504234003 | 21 | 2 | 4.8 | 8.0 | 0.00 | 0.00 | 0.00 | 36 | 1010.6 |
| 20260504233503 | 21 | 1 | 4.8 | 8.0 | 0.00 | 0.00 | 0.00 | 36 | 1010.5 |
| 20260504233004 | 21 | 2 | 4.8 | 8.0 | 0.00 | 0.00 | 0.00 | 36 | 1010.5 |
| 20260504232503 | 21 | 1 | 4.8 | 16.1 | 0.00 | 0.00 | 0.00 | 35 | 1010.4 |
| 20260504232003 | 21 | 2 | 8.0 | 17.7 | 0.00 | 0.00 | 0.00 | 35 | 1010.4 |
| 20260504231503 | 21 | 2 | 8.0 | 17.7 | 0.00 | 0.00 | 0.00 | 35 | 1010.4 |
| 20260504231004 | 21 | 1 | 6.4 | 17.7 | 0.00 | 0.00 | 0.00 | 36 | 1010.4 |
| 20260504230503 | 21 | 1 | 8.0 | 8.0 | 0.00 | 0.00 | 0.00 | 35 | 1010.4 |
| 20260504230003 | 21 | 1 | 6.4 | 14.5 | 0.00 | 0.00 | 0.00 | 35 | 1010.4 |
| 20260504225504 | 21 | 2 | 6.4 | 16.1 | 0.00 | 0.00 | 0.00 | 35 | 1010.3 |
| 20260504225003 | 21 | 2 | 6.4 | 17.7 | 0.00 | 0.00 | 0.00 | 34 | 1010.4 |
| 20260504224503 | 21 | 1 | 8.0 | 17.7 | 0.00 | 0.00 | 0.00 | 34 | 1010.4 |
| 20260504224004 | 21 | 1 | 8.0 | 17.7 | 0.00 | 0.00 | 0.00 | 34 | 1010.5 |
| 20260504223503 | 21 | 1 | 8.0 | 17.7 | 0.00 | 0.00 | 0.00 | 34 | 1010.5 |
| 20260504222503 | 21 | 331 | 8.0 | 17.7 | 0.00 | 0.00 | 0.00 | 34 | 1010.5 |
| 20260504222003 | 21 | 194 | 6.4 | 11.3 | 0.00 | 0.00 | 0.00 | 34 | 1010.5 |
| 20260504221003 | 22 | 196 | 8.0 | 9.7 | 0.00 | 0.00 | 0.00 | 34 | 1010.5 |
| 20260504220503 | 21 | 311 | 6.4 | 11.3 | 0.00 | 0.00 | 0.00 | 34 | 1010.5 |
| 20260504215504 | 21 | 219 | 9.7 | 14.5 | 0.00 | 0.00 | 0.00 | 33 | 1010.6 |